Location: Bu�n Treun
(12.1333°N, 108.3167°E)
Time: 00:23:10
(UTC+00:00)

ATLAS 3B R/B - Pass Details

Date: 13 July 2020
Orbit: 1021 x 1174 km, 63.8° (Epoch: 02 August)

Event Time Altitude Azimuth Distance (km) Brightness Sun altitude
Exits shadow 20:43:05 39° 198° (SSW) 1,501 3.1 -24.2°
Maximum altitude 20:45:47 84° 114° (ESE) 1,039 2.6 -23.6°
Drops below altitude 10° 20:52:23 10° 25° (NNE) 2,803 5.6 -22.2°
Sets 20:54:57 0° 25° (NNE) 3,752 6.4 -21.6°
